Flag for Poland Weather past 2 weeks in Gdańsk, Poland

Now
45 °F

Light rain. Passing clouds.


Feels Like: 40 °F
Forecast: 39 / 43 °F
Wind: 8 mph from South

Location: Gdansk-Rebiechowo

Current Time: Mar 30, 2015 at 3:48:07 AM

Latest Report: Mar 30, 2015 at 3:30 AM


Visibility: 4 mi

Pressure: 28.97 "Hg

Humidity: 100%

Dew point: 45 °F

Location of GdańskLocation

Historic Weather in Gdańsk — Graph

°F

Gdańsk temperature yesterday

Maximum temperature yesterday: 46 °F (at 11:00 PM)
Minimum temperature yesterday: 34 °F (at 12:00 AM)
Average temperature yesterday: 41 °F

Past Weeks' High & Low Weather Summary

 TemperatureHumidityPressure
High55 °F (Mar 17, 1:30 PM)100% (Mar 21, 5:30 PM)30.72 "Hg (Mar 21, 5:30 PM)
Low27 °F (Mar 19, 4:30 AM)23% (Mar 23, 12:30 PM)29.06 "Hg (Mar 30, 2:00 AM)
Average40 °F72%30.13 "Hg
* Reported Mar 15 1:00 AM — Mar 30 2:30 AM, Gdańsk, Weather by CustomWeather, © 2015

Note: Actual official high and low records may vary slightly from our data, if they occured in-between our weather recording intervals... More about our weather records

Advertising

Gdańsk weather history for previous 24 hours

 ConditionsComfort  
Time TempWeatherWind HumidityBarometerVisibility
2:30 AM
Mon, Mar 30
45 °FPartly cloudy.7 mph100%29.06 "Hg5 mi
2:00 AM45 °FPartly cloudy.6 mph100%29.06 "Hg5 mi
1:30 AM46 °FLight rain. Passing clouds.8 mph93%29.09 "Hg5 mi
1:00 AM45 °FLight rain. Partly cloudy.6 mph100%29.12 "Hg5 mi
12:30 AM46 °FLight rain. Passing clouds.6 mph93%29.15 "Hg4 mi
12:00 AM46 °FLight rain. Passing clouds.6 mph93%29.18 "Hg4 mi
11:30 PM
Sun, Mar 29
46 °FLight rain. Fog.6 mph93%29.21 "Hg3 mi
11:00 PM46 °FLight rain. Fog.6 mph93%29.21 "Hg3 mi
10:30 PM45 °FLight rain. Fog.6 mph100%29.24 "Hg3 mi
10:00 PM45 °FLight rain. Partly cloudy.6 mph100%29.27 "Hg5 mi
9:30 PM45 °FLight rain. Passing clouds.6 mph100%29.27 "Hg5 mi
9:00 PM45 °FLight rain. Fog.6 mph100%29.30 "Hg3 mi
8:30 PM45 °FLight rain. Passing clouds.6 mph100%29.33 "Hg4 mi
8:00 PM45 °FLight rain. Fog.7 mph100%29.33 "Hg3 mi
7:30 PM45 °FFog.8 mph100%29.33 "Hg2 mi
7:00 PM45 °FLight rain. Fog.8 mph100%29.36 "Hg2 mi
6:30 PM45 °FFog.8 mph93%29.36 "Hg2 mi
6:00 PM45 °FFog.8 mph93%29.36 "Hg3 mi
5:30 PM43 °FLight rain. Fog.7 mph100%29.39 "Hg2 mi
5:00 PM43 °FSprinkles. Fog.9 mph100%29.39 "Hg2 mi
4:30 PM43 °FSprinkles. Fog.9 mph100%29.42 "Hg3 mi
4:00 PM43 °FSprinkles. Partly sunny.10 mph93%29.42 "Hg5 mi
3:30 PM43 °FDrizzle. Partly sunny.10 mph93%29.45 "Hg4 mi
3:00 PM43 °FPartly sunny.13 mph93%29.45 "HgN/A
2:30 PM45 °FPartly sunny.13 mph81%29.45 "HgN/A
2:00 PM45 °FSprinkles. Partly sunny.14 mph81%29.47 "HgN/A
1:30 PM45 °FSprinkles. Partly sunny.15 mph76%29.47 "HgN/A
1:00 PM45 °FPartly sunny.16 mph71%29.47 "HgN/A
12:30 PM45 °FPartly sunny.15 mph66%29.50 "HgN/A
12:00 PM45 °FPartly sunny.10 mph66%29.53 "HgN/A
11:30 AM45 °FLight rain. Partly sunny.13 mph66%29.53 "Hg5 mi
11:00 AM43 °FScattered clouds.10 mph71%29.56 "HgN/A
10:30 AM43 °FPassing clouds.13 mph71%29.56 "HgN/A
10:00 AM41 °FPassing clouds.9 mph81%29.59 "HgN/A
9:30 AM39 °FPassing clouds.10 mph87%29.62 "Hg5 mi
9:00 AM37 °FPassing clouds.10 mph93%29.65 "Hg4 mi
8:30 AM37 °FScattered clouds.8 mph93%29.65 "Hg4 mi
8:00 AM36 °FClear.9 mph93%29.68 "Hg4 mi
7:30 AM36 °FClear.7 mph93%29.68 "Hg4 mi
7:00 AM36 °FClear.7 mph93%29.71 "Hg5 mi
6:30 AM36 °FClear.6 mph93%29.74 "Hg5 mi
6:00 AM36 °FPassing clouds.8 mph93%29.74 "HgN/A
5:30 AM36 °FPassing clouds.7 mph93%29.74 "HgN/A
5:00 AM36 °FPassing clouds.6 mph93%29.77 "HgN/A
4:30 AM36 °FPassing clouds.6 mph93%29.77 "HgN/A
4:00 AM36 °FPassing clouds.6 mph93%29.80 "HgN/A
3:30 AM36 °FPassing clouds.6 mph93%29.83 "HgN/A
3:00 AM36 °FPassing clouds.6 mph93%29.83 "HgN/A
Weather by CustomWeather, © 2015

See weather overviewHow to use our weather pages